QPF
0.05 0.07 0.10 0.13 0.13 0.11 0.07 0.06 0.04 0.03 0.03 0.02 0.01 0.01 0.01 0.02 0.02 0.03 0.03 0.03 0.04 0.04 0.03 0.03 0.04 0.05 0.06 0.05 0.05 0.06 0.06 0.05 0.04 0.04 0.03 0.04 0.05 0.05 0.09 0.10 0.08 0.08 0.08
0.06 0.07 0.07 0.08 0.09 0.09 0.10 0.08 0.06 0.04 0.02 0.02 0.02 0.02 0.01 0.01 0.01 0.02 0.03 0.03 0.03 0.03 0.03 0.04 0.05 0.05 0.04 0.05 0.06 0.06 0.08 0.06 0.06 0.05 0.05 0.05 0.05 0.05 0.06 0.08 0.12 0.13 0.11
0.05 0.07 0.07 0.06 0.06 0.06 0.09 0.09 0.08 0.06 0.04 0.04 0.04 0.02 0.02 0.01 0.01 0.02 0.02 0.03 0.04 0.04 0.03 0.03 0.04 0.04 0.04 0.04 0.05 0.06 0.07 0.07 0.06 0.05 0.05 0.05 0.05 0.06 0.06 0.06 0.06 0.10 0.09
0.07 0.08 0.08 0.07 0.07 0.07 0.07 0.08 0.07 0.06 0.07 0.06 0.05 0.04 0.03 0.03 0.02 0.02 0.03 0.03 0.05 0.05 0.04 0.03 0.04 0.03 0.04 0.04 0.05 0.06 0.05 0.06 0.06 0.05 0.04 0.05 0.05 0.04 0.04 0.03 0.03 0.04 0.07
0.09 0.10 0.09 0.09 0.10 0.11 0.10 0.08 0.07 0.06 0.06 0.06 0.04 0.04 0.03 0.03 0.04 0.03 0.04 0.05 0.06 0.07 0.05 0.04 0.03 0.03 0.03 0.04 0.05 0.05 0.04 0.05 0.05 0.05 0.04 0.04 0.04 0.04 0.04 0.04 0.04 0.03 0.05
0.08 0.11 0.12 0.12 0.10 0.11 0.11 0.09 0.09 0.07 0.06 0.05 0.04 0.03 0.03 0.03 0.04 0.04 0.02 0.03 0.05 0.06 0.06 0.04 0.03 0.03 0.03 0.04 0.05 0.04 0.04 0.05 0.04 0.04 0.05 0.04 0.03 0.03 0.05 0.04 0.04 0.04 0.04
0.08 0.09 0.11 0.11 0.09 0.10 0.10 0.08 0.07 0.06 0.06 0.06 0.05 0.05 0.04 0.03 0.03 0.03 0.03 0.03 0.04 0.04 0.04 0.04 0.03 0.04 0.05 0.05 0.05 0.05 0.04 0.05 0.05 0.04 0.04 0.05 0.04 0.04 0.04 0.04 0.04 0.04 0.04
0.07 0.08 0.10 0.10 0.08 0.08 0.08 0.07 0.06 0.06 0.04 0.04 0.04 0.05 0.05 0.04 0.03 0.02 0.02 0.03 0.03 0.04 0.04 0.04 0.04 0.04 0.05 0.06 0.06 0.05 0.05 0.05 0.05 0.06 0.06 0.06 0.05 0.04 0.04 0.04 0.04 0.03 0.04
0.07 0.08 0.08 0.08 0.07 0.06 0.06 0.06 0.05 0.06 0.06 0.03 0.03 0.04 0.04 0.04 0.04 0.02 0.02 0.02 0.03 0.03 0.04 0.03 0.03 0.04 0.04 0.04 0.04 0.04 0.06 0.06 0.06 0.07 0.07 0.07 0.06 0.06 0.06 0.05 0.04 0.03 0.02
0.08 0.08 0.09 0.08 0.06 0.05 0.05 0.05 0.05 0.05 0.05 0.04 0.02 0.02 0.02 0.02 0.04 0.05 0.04 0.03 0.02 0.02 0.03 0.02 0.03 0.04 0.04 0.04 0.04 0.04 0.06 0.06 0.07 0.06 0.07 0.06 0.05 0.05 0.05 0.05 0.04 0.03 0.02
0.10 0.09 0.09 0.08 0.07 0.05 0.04 0.04 0.04 0.04 0.04 0.04 0.03 0.02 0.02 0.02 0.03 0.04 0.05 0.05 0.04 0.03 0.03 0.03 0.03 0.03 0.03 0.03 0.04 0.03 0.04 0.05 0.05 0.06 0.05 0.04 0.04 0.03 0.04 0.05 0.05 0.05 0.04
0.09 0.10 0.11 0.10 0.08 0.06 0.05 0.05 0.06 0.04 0.03 0.03 0.03 0.03 0.03 0.03 0.03 0.04 0.04 0.05 0.05 0.04 0.02 0.03 0.03 0.03 0.02 0.02 0.03 0.02 0.02 0.02 0.03 0.02 0.03 0.03 0.03 0.03 0.03 0.04 0.05 0.06 0.06
0.06 0.07 0.09 0.11 0.09 0.07 0.05 0.04 0.04 0.04 0.03 0.04 0.04 0.03 0.02 0.02 0.02 0.03 0.04 0.04 0.04 0.04 0.03 0.03 0.03 0.02 0.02 0.02 0.02 0.01 0.01 0.01 0.01 0.01 0.01 0.01 0.02 0.02 0.02 0.03 0.02 0.04 0.05
0.05 0.05 0.08 0.09 0.07 0.05 0.05 0.05 0.03 0.03 0.04 0.04 0.04 0.03 0.03 0.02 0.03 0.03 0.04 0.04 0.05 0.04 0.03 0.02 0.02 0.01 0.02 0.03 0.02 0.02 0.01 0.01 0.01 0.01 0.00 0.00 0.01 0.01 0.01 0.01 0.01 0.02 0.04
0.05 0.05 0.06 0.08 0.08 0.05 0.04 0.04 0.04 0.03 0.04 0.04 0.04 0.05 0.05 0.04 0.04 0.03 0.03 0.03 0.04 0.04 0.03 0.02 0.01 0.01 0.02 0.02 0.03 0.03 0.02 0.02 0.02 0.01 0.01 0.00 0.00 0.00 0.00 0.01 0.01 0.02 0.04
0.05 0.05 0.06 0.07 0.09 0.08 0.06 0.04 0.04 0.05 0.05 0.06 0.05 0.04 0.04 0.03 0.04 0.04 0.03 0.03 0.03 0.03 0.02 0.01 0.01 0.01 0.02 0.01 0.01 0.02 0.03 0.03 0.02 0.02 0.01 0.01 0.00 0.00 0.00 0.00 0.01 0.01 0.02
0.07 0.07 0.07 0.07 0.07 0.09 0.09 0.07 0.06 0.05 0.04 0.04 0.05 0.05 0.05 0.04 0.03 0.02 0.02 0.02 0.02 0.02 0.02 0.01 0.01 0.01 0.01 0.01 0.01 0.01 0.02 0.02 0.02 0.02 0.02 0.01 0.01 0.00 0.00 0.01 0.01 0.02 0.01
0.09 0.08 0.06 0.05 0.05 0.06 0.07 0.07 0.05 0.04 0.04 0.04 0.05 0.06 0.06 0.04 0.04 0.04 0.03 0.03 0.03 0.02 0.02 0.01 0.01 0.01 0.01 0.01 0.01 0.00 0.00 0.01 0.01 0.01 0.01 0.01 0.02 0.01 0.01 0.02 0.02 0.02 0.02
0.08 0.07 0.05 0.05 0.05 0.05 0.05 0.05 0.04 0.02 0.03 0.04 0.05 0.06 0.06 0.05 0.05 0.04 0.03 0.03 0.02 0.01 0.01 0.01 0.01 0.01 0.01 0.01 0.01 0.00 0.00 0.01 0.00 0.00 0.00 0.01 0.01 0.02 0.02 0.02 0.02 0.02 0.02
0.07 0.06 0.06 0.05 0.06 0.05 0.04 0.03 0.03 0.02 0.03 0.04 0.04 0.05 0.06 0.05 0.05 0.04 0.03 0.02 0.02 0.01 0.02 0.02 0.01 0.02 0.02 0.01 0.01 0.01 0.01 0.01 0.01 0.01 0.00 0.00 0.01 0.01 0.01 0.01 0.02 0.02 0.02
0.05 0.05 0.06 0.06 0.07 0.06 0.04 0.03 0.03 0.02 0.03 0.04 0.03 0.03 0.03 0.05 0.06 0.05 0.03 0.03 0.02 0.02 0.02 0.02 0.01 0.01 0.01 0.01 0.01 0.01 0.01 0.01 0.01 0.01 0.01 0.01 0.01 0.01 0.01 0.01 0.01 0.01 0.02
0.04 0.03 0.04 0.04 0.04 0.06 0.06 0.04 0.03 0.02 0.03 0.03 0.03 0.03 0.03 0.03 0.03 0.04 0.05 0.05 0.04 0.04 0.03 0.02 0.01 0.01 0.01 0.01 0.02 0.01 0.01 0.01 0.01 0.01 0.02 0.02 0.01 0.01 0.01 0.01 0.01 0.00 0.00
0.04 0.03 0.04 0.04 0.03 0.04 0.06 0.05 0.03 0.02 0.02 0.03 0.04 0.03 0.02 0.01 0.01 0.02 0.03 0.04 0.04 0.05 0.05 0.05 0.04 0.03 0.02 0.02 0.02 0.02 0.01 0.01 0.01 0.01 0.01 0.01 0.02 0.01 0.01 0.01 0.01 0.01 0.00
0.04 0.04 0.04 0.06 0.04 0.04 0.06 0.06 0.05 0.04 0.03 0.02 0.02 0.02 0.02 0.01 0.01 0.02 0.03 0.02 0.03 0.02 0.03 0.03 0.05 0.05 0.04 0.03 0.03 0.02 0.02 0.01 0.01 0.01 0.01 0.01 0.01 0.01 0.01 0.01 0.01 0.01 0.01
0.05 0.05 0.04 0.05 0.06 0.05 0.06 0.08 0.08 0.05 0.03 0.02 0.02 0.01 0.01 0.02 0.02 0.01 0.02 0.03 0.03 0.03 0.02 0.02 0.02 0.03 0.02 0.02 0.02 0.02 0.02 0.01 0.01 0.01 0.01 0.01 0.01 0.01 0.01 0.01 0.01 0.01 0.01
0.05 0.04 0.03 0.04 0.06 0.07 0.05 0.05 0.05 0.06 0.04 0.03 0.02 0.02 0.01 0.02 0.03 0.03 0.02 0.03 0.03 0.03 0.02 0.01 0.01 0.02 0.01 0.01 0.01 0.01 0.01 0.01 0.01 0.01 0.01 0.01 0.01 0.02 0.01 0.01 0.01 0.01 0.01
MSLP
1009.68 1009.94 1010.32 1010.81 1011.42 1012.11 1012.84 1013.57 1014.24 1014.82 1015.29 1015.66 1015.95 1016.22 1016.50 1016.83 1017.23 1017.71 1018.22 1018.74 1019.21 1019.62 1019.93 1020.14 1020.27 1020.34 1020.37 1020.39 1020.42 1020.45 1020.49 1020.51 1020.50 1020.46 1020.39 1020.29 1020.17 1020.04 1019.89 1019.72 1019.54 1019.34 1019.11
1010.46 1010.77 1011.20 1011.74 1012.37 1013.08 1013.81 1014.52 1015.18 1015.74 1016.19 1016.54 1016.83 1017.09 1017.35 1017.66 1018.02 1018.43 1018.87 1019.31 1019.72 1020.07 1020.34 1020.53 1020.65 1020.73 1020.78 1020.82 1020.86 1020.90 1020.92 1020.92 1020.90 1020.85 1020.78 1020.69 1020.59 1020.48 1020.38 1020.26 1020.11 1019.95 1019.75
1011.24 1011.61 1012.09 1012.67 1013.34 1014.06 1014.79 1015.49 1016.13 1016.66 1017.10 1017.44 1017.71 1017.96 1018.20 1018.47 1018.78 1019.12 1019.48 1019.83 1020.15 1020.43 1020.65 1020.82 1020.95 1021.05 1021.12 1021.19 1021.25 1021.29 1021.31 1021.30 1021.25 1021.18 1021.10 1021.00 1020.91 1020.83 1020.75 1020.67 1020.57 1020.43 1020.25
1011.97 1012.39 1012.92 1013.54 1014.24 1014.97 1015.70 1016.38 1016.99 1017.50 1017.92 1018.25 1018.51 1018.74 1018.97 1019.21 1019.47 1019.74 1020.02 1020.29 1020.54 1020.75 1020.93 1021.07 1021.20 1021.31 1021.41 1021.50 1021.58 1021.62 1021.64 1021.61 1021.55 1021.46 1021.36 1021.25 1021.16 1021.09 1021.03 1020.97 1020.90 1020.79 1020.63
1012.61 1013.07 1013.64 1014.30 1015.01 1015.75 1016.46 1017.11 1017.69 1018.17 1018.56 1018.88 1019.14 1019.37 1019.59 1019.82 1020.05 1020.28 1020.51 1020.72 1020.90 1021.06 1021.20 1021.32 1021.44 1021.55 1021.67 1021.77 1021.86 1021.91 1021.92 1021.89 1021.81 1021.70 1021.58 1021.47 1021.38 1021.31 1021.26 1021.21 1021.15 1021.06 1020.91
1013.16 1013.66 1014.26 1014.93 1015.64 1016.35 1017.03 1017.64 1018.18 1018.62 1018.98 1019.29 1019.55 1019.80 1020.03 1020.27 1020.50 1020.73 1020.93 1021.11 1021.25 1021.37 1021.48 1021.58 1021.68 1021.79 1021.91 1022.02 1022.11 1022.17 1022.18 1022.14 1022.06 1021.94 1021.82 1021.70 1021.60 1021.53 1021.48 1021.43 1021.37 1021.28 1021.14
1013.66 1014.16 1014.77 1015.44 1016.12 1016.80 1017.43 1017.99 1018.46 1018.86 1019.19 1019.48 1019.75 1020.01 1020.28 1020.55 1020.81 1021.05 1021.26 1021.44 1021.57 1021.67 1021.76 1021.84 1021.93 1022.03 1022.14 1022.25 1022.34 1022.40 1022.42 1022.39 1022.32 1022.21 1022.09 1021.98 1021.88 1021.80 1021.74 1021.68 1021.61 1021.51 1021.36
1014.12 1014.62 1015.21 1015.85 1016.51 1017.13 1017.70 1018.18 1018.59 1018.93 1019.23 1019.50 1019.77 1020.05 1020.35 1020.66 1020.96 1021.24 1021.48 1021.68 1021.82 1021.92 1022.00 1022.07 1022.15 1022.24 1022.34 1022.45 1022.55 1022.62 1022.66 1022.65 1022.60 1022.52 1022.42 1022.31 1022.22 1022.13 1022.06 1021.98 1021.89 1021.77 1021.60
1014.56 1015.05 1015.62 1016.22 1016.82 1017.38 1017.88 1018.29 1018.63 1018.91 1019.16 1019.40 1019.66 1019.95 1020.28 1020.62 1020.97 1021.28 1021.56 1021.78 1021.94 1022.06 1022.14 1022.22 1022.29 1022.38 1022.48 1022.60 1022.71 1022.81 1022.87 1022.90 1022.89 1022.84 1022.77 1022.69 1022.60 1022.51 1022.42 1022.32 1022.19 1022.05 1021.86
1015.00 1015.46 1015.99 1016.55 1017.10 1017.60 1018.03 1018.37 1018.65 1018.87 1019.06 1019.27 1019.50 1019.79 1020.11 1020.47 1020.83 1021.18 1021.48 1021.73 1021.91 1022.05 1022.15 1022.24 1022.32 1022.42 1022.54 1022.67 1022.81 1022.93 1023.04 1023.11 1023.15 1023.15 1023.11 1023.06 1022.98 1022.88 1022.77 1022.64 1022.49 1022.31 1022.10
1015.39 1015.82 1016.32 1016.84 1017.34 1017.79 1018.16 1018.46 1018.68 1018.84 1018.99 1019.15 1019.35 1019.61 1019.91 1020.25 1020.61 1020.95 1021.26 1021.53 1021.73 1021.89 1022.01 1022.12 1022.23 1022.35 1022.49 1022.65 1022.82 1022.98 1023.13 1023.25 1023.33 1023.37 1023.38 1023.34 1023.28 1023.18 1023.05 1022.89 1022.71 1022.50 1022.28
1015.69 1016.10 1016.57 1017.05 1017.52 1017.94 1018.28 1018.54 1018.73 1018.86 1018.97 1019.09 1019.25 1019.46 1019.72 1020.02 1020.34 1020.66 1020.96 1021.22 1021.44 1021.61 1021.76 1021.90 1022.04 1022.19 1022.36 1022.55 1022.74 1022.94 1023.12 1023.28 1023.40 1023.48 1023.51 1023.49 1023.43 1023.33 1023.19 1023.01 1022.81 1022.59 1022.36
1015.88 1016.26 1016.71 1017.17 1017.62 1018.02 1018.36 1018.61 1018.79 1018.91 1019.00 1019.09 1019.21 1019.37 1019.57 1019.82 1020.09 1020.36 1020.63 1020.87 1021.09 1021.28 1021.46 1021.62 1021.80 1021.98 1022.18 1022.39 1022.61 1022.82 1023.02 1023.20 1023.33 1023.43 1023.47 1023.47 1023.41 1023.31 1023.16 1022.98 1022.77 1022.54 1022.31
1015.93 1016.30 1016.72 1017.17 1017.61 1018.02 1018.37 1018.64 1018.84 1018.97 1019.07 1019.15 1019.24 1019.35 1019.50 1019.68 1019.89 1020.12 1020.34 1020.57 1020.78 1020.98 1021.17 1021.37 1021.57 1021.78 1022.00 1022.22 1022.44 1022.65 1022.85 1023.01 1023.14 1023.23 1023.27 1023.27 1023.21 1023.11 1022.97 1022.79 1022.58 1022.36 1022.14
1015.87 1016.22 1016.63 1017.07 1017.51 1017.94 1018.31 1018.62 1018.85 1019.02 1019.14 1019.22 1019.30 1019.39 1019.50 1019.63 1019.79 1019.96 1020.15 1020.35 1020.55 1020.76 1020.97 1021.19 1021.41 1021.64 1021.86 1022.07 1022.28 1022.46 1022.62 1022.75 1022.85 1022.91 1022.93 1022.91 1022.86 1022.76 1022.63 1022.46 1022.28 1022.08 1021.87
1015.75 1016.08 1016.47 1016.90 1017.35 1017.79 1018.19 1018.54 1018.82 1019.04 1019.19 1019.31 1019.39 1019.48 1019.56 1019.66 1019.78 1019.92 1020.08 1020.26 1020.46 1020.67 1020.89 1021.12 1021.35 1021.58 1021.79 1021.98 1022.15 1022.28 1022.39 1022.46 1022.50 1022.52 1022.50 1022.46 1022.40 1022.31 1022.19 1022.06 1021.90 1021.73 1021.55
1015.63 1015.94 1016.32 1016.74 1017.19 1017.64 1018.06 1018.44 1018.77 1019.03 1019.23 1019.37 1019.49 1019.58 1019.66 1019.74 1019.84 1019.97 1020.11 1020.28 1020.48 1020.70 1020.93 1021.16 1021.39 1021.61 1021.79 1021.95 1022.06 1022.14 1022.17 1022.17 1022.15 1022.11 1022.05 1021.98 1021.90 1021.82 1021.72 1021.61 1021.49 1021.35 1021.19
1015.56 1015.87 1016.23 1016.64 1017.08 1017.53 1017.96 1018.36 1018.71 1019.01 1019.24 1019.42 1019.56 1019.67 1019.77 1019.86 1019.95 1020.07 1020.21 1020.39 1020.58 1020.80 1021.03 1021.26 1021.49 1021.68 1021.84 1021.95 1022.01 1022.03 1022.00 1021.93 1021.84 1021.73 1021.62 1021.52 1021.43 1021.34 1021.25 1021.16 1021.07 1020.96 1020.83
1015.58 1015.89 1016.25 1016.65 1017.08 1017.51 1017.93 1018.33 1018.68 1018.99 1019.25 1019.45 1019.62 1019.75 1019.86 1019.97 1020.07 1020.20 1020.34 1020.52 1020.71 1020.93 1021.16 1021.38 1021.59 1021.76 1021.89 1021.97 1021.99 1021.95 1021.86 1021.74 1021.59 1021.43 1021.27 1021.13 1021.01 1020.90 1020.81 1020.73 1020.65 1020.55 1020.43
1015.68 1016.01 1016.37 1016.76 1017.17 1017.57 1017.97 1018.35 1018.69 1018.99 1019.25 1019.47 1019.65 1019.80 1019.93 1020.06 1020.18 1020.32 1020.47 1020.64 1020.84 1021.04 1021.26 1021.47 1021.66 1021.82 1021.93 1021.98 1021.97 1021.91 1021.79 1021.62 1021.43 1021.23 1021.02 1020.84 1020.67 1020.53 1020.41 1020.31 1020.22 1020.12 1020.00
1015.81 1016.17 1016.54 1016.93 1017.31 1017.69 1018.06 1018.40 1018.71 1018.99 1019.25 1019.46 1019.66 1019.83 1019.98 1020.12 1020.27 1020.42 1020.57 1020.75 1020.93 1021.13 1021.32 1021.51 1021.69 1021.83 1021.92 1021.97 1021.96 1021.88 1021.75 1021.58 1021.36 1021.13 1020.89 1020.65 1020.43 1020.24 1020.07 1019.92 1019.79 1019.66 1019.52
1015.90 1016.29 1016.69 1017.07 1017.44 1017.79 1018.13 1018.43 1018.72 1018.98 1019.22 1019.44 1019.64 1019.83 1020.01 1020.18 1020.34 1020.51 1020.67 1020.84 1021.01 1021.18 1021.35 1021.52 1021.67 1021.80 1021.89 1021.94 1021.94 1021.88 1021.76 1021.60 1021.38 1021.13 1020.86 1020.57 1020.29 1020.03 1019.78 1019.56 1019.36 1019.17 1018.99
1015.89 1016.31 1016.72 1017.11 1017.47 1017.80 1018.11 1018.40 1018.66 1018.91 1019.15 1019.38 1019.60 1019.82 1020.03 1020.23 1020.42 1020.60 1020.77 1020.93 1021.09 1021.23 1021.37 1021.51 1021.64 1021.75 1021.84 1021.89 1021.92 1021.89 1021.81 1021.67 1021.47 1021.22 1020.92 1020.59 1020.25 1019.90 1019.56 1019.25 1018.96 1018.70 1018.45
1015.71 1016.16 1016.58 1016.97 1017.32 1017.65 1017.95 1018.23 1018.49 1018.74 1019.00 1019.26 1019.52 1019.78 1020.03 1020.27 1020.50 1020.70 1020.89 1021.04 1021.18 1021.29 1021.40 1021.50 1021.59 1021.69 1021.77 1021.84 1021.89 1021.90 1021.86 1021.76 1021.59 1021.35 1021.05 1020.68 1020.28 1019.86 1019.43 1019.01 1018.63 1018.27 1017.95
1015.36 1015.80 1016.22 1016.61 1016.97 1017.30 1017.61 1017.90 1018.18 1018.46 1018.76 1019.06 1019.37 1019.69 1020.00 1020.29 1020.56 1020.80 1020.99 1021.15 1021.27 1021.36 1021.43 1021.49 1021.55 1021.62 1021.69 1021.76 1021.83 1021.88 1021.88 1021.83 1021.70 1021.49 1021.19 1020.81 1020.37 1019.88 1019.38 1018.87 1018.39 1017.95 1017.55
1014.83 1015.25 1015.66 1016.05 1016.41 1016.76 1017.09 1017.41 1017.74 1018.07 1018.41 1018.78 1019.15 1019.53 1019.90 1020.25 1020.56 1020.84 1021.05 1021.22 1021.33 1021.40 1021.43 1021.46 1021.48 1021.51 1021.57 1021.64 1021.72 1021.79 1021.83 1021.82 1021.74 1021.57 1021.29 1020.92 1020.47 1019.95 1019.39 1018.82 1018.26 1017.75 1017.29
Thickness
5744 5743 5741 5739 5739 5737 5736 5736 5736 5735 5735 5735 5735 5734 5734 5733 5733 5732 5728 5724 5722 5721 5721 5721 5720 5720 5720 5720 5719 5718 5718 5717 5717 5716 5715 5714 5713 5712 5711 5710 5709 5708 5707
5741 5740 5738 5737 5737 5735 5734 5733 5733 5732 5733 5732 5732 5731 5731 5730 5729 5728 5728 5724 5721 5720 5719 5718 5718 5718 5718 5718 5717 5716 5715 5714 5714 5713 5712 5712 5711 5710 5709 5708 5707 5706 5705
5737 5737 5737 5735 5734 5732 5730 5729 5729 5730 5729 5729 5729 5728 5729 5728 5727 5726 5726 5725 5722 5719 5717 5717 5716 5716 5716 5715 5715 5714 5713 5712 5711 5711 5710 5709 5708 5707 5706 5705 5704 5704 5703
5734 5734 5733 5733 5731 5730 5729 5727 5727 5727 5726 5726 5726 5726 5727 5725 5724 5723 5724 5723 5722 5721 5717 5715 5714 5714 5713 5713 5712 5711 5711 5710 5709 5708 5707 5706 5705 5704 5703 5703 5702 5701 5700
5731 5730 5730 5729 5728 5728 5727 5726 5725 5724 5723 5722 5723 5723 5724 5723 5722 5722 5721 5720 5719 5718 5717 5714 5712 5712 5711 5710 5709 5709 5708 5707 5706 5705 5704 5703 5702 5701 5700 5700 5699 5698 5697
5727 5727 5727 5725 5725 5724 5723 5722 5720 5719 5719 5719 5721 5721 5721 5721 5720 5719 5719 5717 5716 5716 5716 5715 5713 5711 5709 5708 5707 5706 5705 5704 5703 5702 5701 5700 5699 5698 5697 5697 5696 5695 5694
5724 5724 5724 5721 5721 5721 5719 5718 5717 5716 5716 5716 5715 5714 5717 5718 5717 5715 5716 5716 5715 5713 5713 5712 5712 5711 5709 5706 5704 5703 5702 5701 5700 5699 5698 5698 5697 5695 5694 5693 5692 5692 5691
5721 5721 5718 5718 5717 5716 5714 5714 5713 5713 5714 5713 5711 5709 5709 5710 5711 5715 5713 5712 5712 5712 5711 5710 5709 5707 5707 5706 5703 5701 5699 5698 5697 5696 5696 5694 5694 5693 5692 5690 5689 5689 5688
5717 5716 5715 5714 5713 5714 5712 5710 5710 5709 5708 5710 5711 5709 5706 5705 5708 5710 5710 5710 5709 5709 5709 5708 5707 5705 5704 5703 5702 5699 5697 5695 5694 5693 5692 5691 5690 5690 5689 5688 5687 5686 5685
5713 5712 5711 5710 5709 5710 5708 5708 5708 5707 5705 5706 5707 5707 5708 5709 5704 5703 5705 5707 5706 5705 5706 5706 5705 5703 5701 5700 5697 5695 5694 5692 5691 5690 5689 5688 5687 5686 5686 5686 5685 5684 5683
5709 5708 5707 5706 5705 5706 5705 5704 5704 5704 5704 5704 5704 5704 5703 5703 5705 5702 5699 5700 5703 5704 5704 5702 5702 5700 5698 5697 5695 5693 5690 5688 5687 5686 5685 5684 5683 5683 5682 5682 5682 5681 5680
5707 5704 5703 5702 5701 5701 5700 5699 5699 5700 5700 5700 5701 5702 5701 5700 5700 5700 5697 5696 5697 5700 5700 5699 5698 5697 5696 5695 5692 5689 5686 5685 5684 5683 5682 5680 5680 5679 5679 5679 5678 5678 5677
5703 5700 5700 5698 5697 5696 5696 5695 5694 5696 5695 5695 5695 5697 5699 5700 5700 5699 5697 5696 5694 5696 5696 5697 5697 5695 5693 5691 5688 5684 5683 5681 5680 5679 5678 5677 5676 5675 5675 5675 5674 5674 5673
5700 5697 5695 5694 5693 5693 5693 5691 5692 5692 5691 5691 5692 5692 5693 5696 5697 5696 5695 5692 5689 5690 5692 5693 5694 5692 5690 5687 5684 5681 5680 5678 5676 5675 5674 5673 5672 5671 5671 5671 5670 5670 5669
5695 5693 5692 5690 5689 5688 5688 5687 5688 5687 5688 5688 5690 5688 5689 5692 5692 5693 5692 5691 5686 5683 5686 5688 5688 5688 5685 5683 5679 5678 5677 5674 5672 5671 5670 5669 5668 5668 5667 5667 5666 5666 5665
5690 5689 5687 5686 5685 5684 5684 5683 5683 5683 5683 5683 5684 5683 5684 5687 5688 5688 5688 5688 5687 5684 5683 5687 5685 5686 5681 5679 5676 5674 5673 5671 5669 5668 5666 5665 5664 5664 5663 5663 5662 5662 5661
5685 5684 5683 5682 5681 5681 5680 5679 5680 5679 5679 5679 5680 5680 5680 5680 5682 5684 5684 5684 5683 5682 5679 5682 5683 5681 5676 5674 5672 5671 5670 5670 5669 5666 5664 5662 5661 5660 5660 5659 5659 5658 5657
5681 5680 5679 5678 5677 5677 5676 5675 5676 5676 5675 5675 5676 5676 5676 5677 5676 5677 5678 5679 5679 5678 5676 5674 5675 5675 5672 5670 5668 5667 5668 5668 5667 5664 5661 5659 5658 5657 5657 5656 5655 5655 5654
5676 5676 5674 5673 5673 5673 5672 5672 5672 5673 5673 5673 5672 5672 5672 5671 5670 5672 5671 5673 5674 5675 5673 5671 5671 5671 5670 5668 5665 5664 5665 5663 5664 5663 5660 5657 5656 5655 5654 5653 5652 5651 5650
5672 5671 5670 5669 5670 5669 5669 5669 5669 5669 5669 5669 5669 5668 5668 5667 5666 5666 5666 5666 5668 5668 5668 5667 5667 5666 5665 5665 5662 5661 5661 5660 5660 5661 5659 5657 5655 5653 5652 5651 5650 5648 5647
5668 5667 5666 5665 5665 5665 5665 5664 5664 5665 5664 5664 5665 5664 5664 5662 5660 5659 5661 5662 5662 5662 5663 5662 5662 5661 5661 5659 5658 5659 5657 5657 5657 5658 5657 5657 5655 5654 5653 5650 5648 5646 5644
5663 5662 5662 5661 5661 5661 5659 5657 5657 5660 5660 5660 5660 5660 5660 5657 5654 5652 5652 5652 5653 5654 5655 5655 5656 5655 5654 5654 5654 5653 5652 5651 5651 5654 5652 5653 5654 5653 5653 5652 5649 5645 5642
5658 5657 5657 5657 5657 5656 5652 5651 5650 5653 5656 5656 5655 5654 5656 5656 5652 5651 5648 5646 5646 5645 5645 5647 5649 5649 5649 5649 5648 5647 5645 5645 5646 5648 5646 5648 5651 5651 5651 5651 5646 5643 5641
5653 5653 5653 5653 5652 5651 5647 5645 5644 5647 5651 5652 5652 5651 5650 5649 5648 5646 5645 5645 5644 5643 5641 5641 5642 5643 5643 5642 5640 5640 5639 5639 5640 5642 5642 5642 5646 5647 5649 5647 5643 5641 5639
5648 5648 5649 5648 5647 5646 5641 5640 5638 5644 5646 5647 5648 5647 5646 5645 5641 5638 5639 5640 5640 5640 5638 5637 5636 5636 5634 5633 5632 5633 5634 5634 5638 5641 5640 5639 5641 5643 5644 5645 5642 5638 5636
5644 5644 5644 5643 5643 5642 5637 5635 5633 5640 5641 5642 5643 5643 5640 5639 5636 5633 5634 5635 5634 5635 5635 5634 5631 5630 5630 5630 5627 5627 5630 5632 5634 5636 5638 5635 5637 5637 5638 5642 5640 5638 5634